Location: NJAA Observatory
(40.6819°N, 74.8979°W)
Time: 14:14:41
(UTC-04:00)

Vanguard 1 - All Passes

Search period start: 30 August 2014 00:00
Search period end: 09 September 2014 00:00
Orbit: 650 x 3837 km, 34.2° (Epoch: 28 August)

Date Brightness Start Highest point End Pass type
(mag) Time Alt. Az. Time Alt. Az. Time Alt. Az.
30 Aug - 00:00:00 36° SW 00:08:36 56° SSE 00:20:51 10° E visible
30 Aug - 02:15:01 10° W 02:31:55 65° S 02:40:52 10° ESE visible
30 Aug - 04:42:12 10° W 04:53:01 41° SSW 04:59:17 10° SE visible
30 Aug - 19:31:50 10° SSE 19:42:07 15° SE 19:51:40 10° ESE daylight
30 Aug - 21:45:56 10° SSW 22:06:03 39° SSE 22:20:43 10° E visible
31 Aug - 00:09:48 10° WSW 00:30:27 61° SSE 00:42:27 10° E visible
31 Aug - 02:37:15 10° W 02:53:35 63° S 03:02:13 10° ESE visible
31 Aug - 05:04:31 10° W 05:14:10 32° SW 05:20:04 10° SSE visible
31 Aug - 19:48:48 10° S 20:03:36 21° SE 20:16:49 10° E visible
31 Aug - 22:06:37 10° SW 22:27:49 46° SSE 22:42:44 10° E visible
01 Sep - 00:31:44 10° WSW 00:52:19 66° S 01:04:00 10° E visible
01 Sep - 02:59:31 10° W 03:15:10 59° SSW 03:23:30 10° ESE visible
01 Sep - 05:27:03 10° W 05:35:10 24° SW 05:40:32 10° S visible
01 Sep - 20:07:33 10° S 20:25:06 28° SE 20:40:20 10° E visible
01 Sep - 22:27:43 10° SW 22:49:39 53° SSE 23:04:35 10° E visible
02 Sep - 00:53:51 10° WSW 01:14:10 68° S 01:25:30 10° E visible
02 Sep - 03:21:49 10° W 03:36:39 53° SSW 03:44:41 10° SE visible
02 Sep - 05:50:04 10° W 05:56:01 17° SW 06:00:26 10° S visible
02 Sep - 20:27:13 10° SSW 20:46:40 35° SE 21:03:05 10° E visible
02 Sep - 22:49:09 10° SW 23:11:32 60° SSE 23:26:19 10° E visible
03 Sep - 01:16:04 10° W 01:35:59 68° S 01:46:57 10° ESE visible
03 Sep - 03:44:09 10° W 03:57:58 45° SSW 04:05:42 10° SE visible
03 Sep - 06:14:47 10° WSW 06:16:45 11° SW 06:18:33 10° SW daylight
03 Sep - 18:33:14 10° SSE 18:44:36 16° SE 18:55:50 10° E daylight
03 Sep - 20:47:29 10° SSW 21:08:18 42° SSE 21:25:25 10° E visible
03 Sep - 23:10:51 10° WSW 23:33:28 65° SSE 23:47:58 10° E visible
04 Sep - 01:38:22 10° W 01:57:45 66° S 02:08:21 10° ESE visible
04 Sep - 04:06:34 10° W 04:19:08 37° SW 04:26:30 10° SSE visible
04 Sep - 18:50:44 10° S 19:05:52 23° SE 19:20:42 10° E daylight
04 Sep - 21:08:13 10° SW 21:30:02 50° SSE 21:47:29 10° E visible
04 Sep - 23:32:47 10° WSW 23:55:25 68° S 00:09:35 10° E visible
05 Sep - 02:00:42 10° W 02:19:26 62° SSW 02:29:40 10° ESE visible
05 Sep - 04:29:11 10° W 04:40:08 29° SW 04:47:00 10° SSE visible
05 Sep - 19:09:43 10° S 19:27:11 30° SE 19:44:11 10° E daylight
05 Sep - 21:29:19 10° SW 21:51:51 56° SSE 22:09:24 10° E visible
05 Sep - 23:54:52 10° WSW 00:17:23 70° S 00:31:09 10° E visible
06 Sep - 02:23:03 10° W 02:40:58 56° SSW 02:50:52 10° SE visible
06 Sep - 04:52:11 10° W 05:00:58 21° SW 05:07:01 10° S visible
06 Sep - 17:23:18 10° SE 17:25:58 10° SE 17:28:40 10° ESE daylight
06 Sep - 19:29:30 10° SSW 19:48:36 37° SE 20:06:58 10° E visible
06 Sep - 21:50:44 10° SW 22:13:46 62° SSE 22:31:13 10° E visible
07 Sep - 00:17:05 10° W 00:39:20 70° S 00:52:41 10° ESE visible
07 Sep - 02:45:27 10° W 03:02:22 49° SSW 03:11:54 10° SE visible
07 Sep - 05:16:05 10° W 05:21:40 14° SW 05:26:03 10° SSW visible
07 Sep - 17:35:52 10° SSE 17:46:59 17° SE 17:58:47 10° E daylight
07 Sep - 19:49:50 10° SSW 20:10:07 44° SE 20:29:22 10° E visible
07 Sep - 22:12:24 10° WSW 22:35:46 67° SSE 22:52:57 10° E visible
08 Sep - 00:39:22 10° W 01:01:12 68° S 01:14:08 10° ESE visible
08 Sep - 03:07:57 10° W 03:23:34 40° SW 03:32:43 10° SSE visible
08 Sep - 17:53:39 10° S 18:08:01 23° SE 18:23:37 10° E daylight
08 Sep - 20:10:36 10° SW 20:31:46 52° SSE 20:51:31 10° E visible
08 Sep - 22:34:16 10° WSW 22:57:48 70° S 23:14:40 10° E visible
